TimeCST,TemperatureF,Dew PointF,Humidity,Sea Level PressureIn,VisibilityMPH,Wind Direction,Wind SpeedMPH,Gust SpeedMPH,PrecipitationIn,Events,Conditions,WindDirDegrees,DateUTC
12:15 AM,44.6,30.2,57,30.42,10.0,NNE,6.9,-,N/A,,Clear,20,2012-12-30 06:15:00
12:35 AM,44.6,30.2,57,30.42,10.0,NNE,8.1,-,N/A,,Clear,20,2012-12-30 06:35:00
12:55 AM,44.6,30.2,57,30.41,10.0,NNE,8.1,-,N/A,,Clear,20,2012-12-30 06:55:00
1:15 AM,44.6,30.2,57,30.42,10.0,North,8.1,-,N/A,,Clear,10,2012-12-30 07:15:00
1:35 AM,44.6,30.2,57,30.42,10.0,North,9.2,-,N/A,,Clear,10,2012-12-30 07:35:00
1:55 AM,44.6,32.0,61,30.41,10.0,NNE,9.2,-,N/A,,Clear,20,2012-12-30 07:55:00
2:15 AM,44.6,30.2,57,30.41,10.0,NNE,11.5,-,N/A,,Clear,20,2012-12-30 08:15:00
2:35 AM,44.6,30.2,57,30.41,10.0,NNE,12.7,-,N/A,,Clear,20,2012-12-30 08:35:00
2:55 AM,44.6,32.0,61,30.41,10.0,NNE,12.7,-,N/A,,Clear,20,2012-12-30 08:55:00
3:15 AM,44.6,32.0,61,30.40,10.0,NNE,11.5,-,N/A,,Clear,20,2012-12-30 09:15:00
3:35 AM,44.6,32.0,61,30.40,10.0,NNE,13.8,-,N/A,,Clear,20,2012-12-30 09:35:00
3:55 AM,44.6,32.0,61,30.40,10.0,NNE,13.8,-,N/A,,Clear,20,2012-12-30 09:55:00
4:15 AM,46.4,32.0,57,30.39,10.0,NNE,13.8,-,N/A,,Clear,30,2012-12-30 10:15:00
4:35 AM,46.4,32.0,57,30.38,10.0,NNE,13.8,-,N/A,,Clear,30,2012-12-30 10:35:00
4:55 AM,46.4,32.0,57,30.38,10.0,NNE,11.5,-,N/A,,Clear,20,2012-12-30 10:55:00
5:15 AM,44.6,33.8,66,30.38,10.0,NNE,12.7,-,N/A,,Clear,20,2012-12-30 11:15:00
5:35 AM,44.6,33.8,66,30.39,10.0,NNE,13.8,19.6,N/A,,Clear,20,2012-12-30 11:35:00
6:15 AM,44.6,33.8,66,30.40,10.0,NNE,16.1,-,N/A,,Clear,20,2012-12-30 12:15:00
6:55 AM,44.6,33.8,66,30.38,10.0,NNE,16.1,21.9,N/A,,Clear,30,2012-12-30 12:55:00
7:15 AM,44.6,33.8,66,30.38,10.0,NNE,12.7,-,N/A,,Clear,30,2012-12-30 13:15:00
7:35 AM,44.6,33.8,66,30.39,10.0,NNE,11.5,-,N/A,,Clear,30,2012-12-30 13:35:00
7:55 AM,44.6,33.8,66,30.39,10.0,NNE,11.5,-,N/A,,Clear,30,2012-12-30 13:55:00
8:15 AM,44.6,33.8,66,30.39,10.0,NNE,15.0,-,N/A,,Clear,30,2012-12-30 14:15:00
8:35 AM,46.4,35.6,66,30.39,10.0,NNE,8.1,-,N/A,,Clear,30,2012-12-30 14:35:00
8:55 AM,51.8,42.8,71,30.40,10.0,NE,15.0,20.7,N/A,,Clear,50,2012-12-30 14:55:00
9:15 AM,51.8,44.6,76,30.39,10.0,NE,15.0,20.7,N/A,,Clear,50,2012-12-30 15:15:00
9:35 AM,51.8,44.6,76,30.40,10.0,NE,17.3,20.7,N/A,,Clear,40,2012-12-30 15:35:00
9:55 AM,53.6,44.6,72,30.40,10.0,NE,16.1,24.2,N/A,,Clear,50,2012-12-30 15:55:00
10:15 AM,53.6,44.6,72,30.40,10.0,NE,15.0,-,N/A,,Clear,50,2012-12-30 16:15:00
10:35 AM,53.6,44.6,72,30.39,10.0,NE,17.3,21.9,N/A,,Clear,40,2012-12-30 16:35:00
10:55 AM,53.6,44.6,72,30.38,10.0,NE,13.8,-,N/A,,Clear,50,2012-12-30 16:55:00
11:15 AM,53.6,44.6,72,30.37,10.0,NE,16.1,-,N/A,,Clear,40,2012-12-30 17:15:00
11:35 AM,53.6,44.6,72,30.37,10.0,NNE,16.1,23.0,N/A,,Clear,30,2012-12-30 17:35:00
11:55 AM,53.6,44.6,72,30.35,10.0,NE,15.0,-,N/A,,Scattered Clouds,40,2012-12-30 17:55:00
12:15 PM,53.6,44.6,72,30.34,10.0,NNE,12.7,-,N/A,,Scattered Clouds,20,2012-12-30 18:15:00
12:35 PM,55.4,44.6,67,30.32,10.0,North,11.5,-,N/A,,Mostly Cloudy,10,2012-12-30 18:35:00
12:55 PM,55.4,44.6,67,30.31,10.0,North,12.7,-,N/A,,Overcast,360,2012-12-30 18:55:00
1:15 PM,55.4,46.4,72,30.30,10.0,North,10.4,-,N/A,,Overcast,10,2012-12-30 19:15:00
1:35 PM,59.0,48.2,67,30.29,10.0,East,6.9,-,N/A,,Overcast,90,2012-12-30 19:35:00
1:55 PM,62.6,50.0,63,30.28,10.0,East,8.1,-,N/A,,Overcast,90,2012-12-30 19:55:00
2:15 PM,62.6,50.0,63,30.27,10.0,East,10.4,-,N/A,,Overcast,100,2012-12-30 20:15:00
2:35 PM,62.6,50.0,63,30.26,10.0,East,10.4,-,N/A,,Overcast,100,2012-12-30 20:35:00
2:55 PM,60.8,50.0,68,30.25,10.0,East,11.5,-,N/A,,Overcast,100,2012-12-30 20:55:00
3:15 PM,60.8,51.8,72,30.24,10.0,East,10.4,-,N/A,,Overcast,90,2012-12-30 21:15:00
3:35 PM,60.8,51.8,72,30.24,10.0,East,10.4,-,N/A,,Overcast,100,2012-12-30 21:35:00
3:55 PM,62.6,51.8,68,30.23,10.0,East,11.5,16.1,N/A,,Overcast,100,2012-12-30 21:55:00
4:15 PM,60.8,51.8,72,30.22,10.0,East,11.5,16.1,N/A,,Overcast,100,2012-12-30 22:15:00
4:35 PM,60.8,51.8,72,30.22,10.0,East,10.4,16.1,N/A,,Overcast,100,2012-12-30 22:35:00
4:55 PM,62.6,51.8,68,30.21,10.0,ESE,12.7,-,N/A,,Overcast,110,2012-12-30 22:55:00
5:15 PM,60.8,51.8,72,30.21,10.0,ESE,11.5,17.3,N/A,,Overcast,110,2012-12-30 23:15:00
5:35 PM,62.6,51.8,68,30.20,10.0,ESE,15.0,20.7,N/A,,Overcast,110,2012-12-30 23:35:00
5:55 PM,62.6,53.6,72,30.20,10.0,ESE,11.5,-,N/A,,Overcast,120,2012-12-30 23:55:00
6:15 PM,62.6,53.6,72,30.19,10.0,ESE,13.8,18.4,N/A,,Overcast,110,2012-12-31 00:15:00
6:35 PM,62.6,53.6,72,30.19,10.0,ESE,13.8,18.4,N/A,,Overcast,120,2012-12-31 00:35:00
6:55 PM,62.6,53.6,72,30.19,10.0,ESE,12.7,-,N/A,,Overcast,120,2012-12-31 00:55:00
7:15 PM,62.6,53.6,72,30.19,10.0,SE,12.7,17.3,N/A,,Overcast,130,2012-12-31 01:15:00
7:35 PM,62.6,53.6,72,30.19,10.0,ESE,10.4,19.6,N/A,,Overcast,120,2012-12-31 01:35:00
7:55 PM,62.6,53.6,72,30.19,10.0,ESE,11.5,19.6,N/A,,Overcast,120,2012-12-31 01:55:00
8:15 PM,62.6,53.6,72,30.19,10.0,SE,11.5,18.4,N/A,,Overcast,130,2012-12-31 02:15:00
8:35 PM,62.6,55.4,77,30.18,10.0,SE,13.8,18.4,N/A,,Overcast,140,2012-12-31 02:35:00
8:55 PM,64.4,55.4,73,30.17,10.0,SE,15.0,18.4,N/A,,Overcast,140,2012-12-31 02:55:00
9:15 PM,64.4,55.4,73,30.17,10.0,SE,13.8,20.7,N/A,,Overcast,140,2012-12-31 03:15:00
9:35 PM,64.4,55.4,73,30.17,10.0,ESE,12.7,18.4,N/A,,Overcast,120,2012-12-31 03:35:00
9:55 PM,64.4,55.4,73,30.18,10.0,SE,15.0,19.6,N/A,,Overcast,140,2012-12-31 03:55:00
10:15 PM,64.4,55.4,73,30.17,10.0,SE,15.0,23.0,N/A,,Overcast,140,2012-12-31 04:15:00
10:35 PM,64.4,57.2,77,30.17,10.0,SSE,15.0,21.9,N/A,,Overcast,150,2012-12-31 04:35:00
10:55 PM,64.4,57.2,77,30.16,10.0,SE,12.7,-,N/A,,Overcast,140,2012-12-31 04:55:00
11:15 PM,62.6,59.0,88,30.16,7.0,SSE,13.8,18.4,N/A,,Overcast,150,2012-12-31 05:15:00
11:35 PM,62.6,59.0,88,30.16,7.0,SE,12.7,-,N/A,,Overcast,140,2012-12-31 05:35:00
11:55 PM,62.6,59.0,88,30.15,10.0,SE,11.5,16.1,N/A,,Overcast,140,2012-12-31 05:55:00